Wind_Speed
12 12 12 13 16 16 13 12 12 13 13 13 12 11 11 9 7 4 2 3 5 7 8 9 10 10 10 10 10 10 9 9 10 10 10 9 8 8 7 7 7 6 6 5 5 5 4 4 4
11 11 11 12 16 11 12 11 12 12 12 12 12 11 11 10 7 5 2 2 4 6 8 9 10 10 10 10 10 10 9 9 9 9 9 8 8 7 6 6 6 5 5 5 4 4 4 4 4
11 10 10 12 12 10 10 11 11 11 12 12 12 12 11 10 8 6 3 1 4 6 7 9 10 11 11 10 10 10 10 9 9 9 8 8 7 6 6 5 5 5 4 4 4 4 4 4 4
10 10 10 11 9 9 10 10 10 11 12 12 13 13 11 9 8 6 4 1 3 5 7 8 10 11 11 11 11 11 10 9 9 8 8 7 6 6 5 5 4 4 4 3 3 3 3 3 4
10 10 10 8 7 9 9 9 9 10 12 13 14 14 13 10 9 7 4 2 2 5 6 8 10 11 12 13 12 12 10 9 9 8 7 7 6 5 5 4 4 3 3 3 3 3 3 3 4
10 10 9 5 7 9 9 8 9 9 11 12 13 14 13 12 10 8 5 3 3 5 6 9 11 12 13 13 13 12 11 10 9 8 8 7 6 5 4 3 3 3 3 3 2 2 2 2 3
10 9 7 6 7 8 9 8 8 9 11 12 13 14 14 13 11 9 7 4 4 5 7 8 11 13 13 14 14 13 12 11 10 9 8 7 6 5 4 3 2 3 3 2 2 2 2 2 3
9 8 7 6 6 7 8 7 8 8 11 12 13 14 15 14 12 10 8 5 4 6 7 9 11 13 14 14 14 14 13 12 10 10 9 8 6 5 4 3 2 2 2 2 2 2 2 2 3
8 7 4 5 5 6 7 7 7 8 10 12 13 14 15 15 13 11 9 6 4 5 7 9 11 12 13 14 15 15 14 13 11 10 9 8 7 5 4 3 3 2 2 2 1 2 2 2 2
7 5 4 4 5 6 7 7 7 9 11 12 13 14 15 15 13 12 10 7 5 5 6 8 10 13 14 15 15 15 15 14 12 11 10 8 7 5 4 4 3 2 2 1 1 1 1 2 2
6 5 5 5 5 5 6 7 7 8 10 11 13 14 15 15 15 13 10 8 7 6 8 9 10 13 14 15 16 15 15 14 13 12 11 9 7 6 5 4 3 3 2 2 1 1 2 2 3
6 5 5 5 5 5 6 7 7 8 8 10 12 13 14 15 15 14 12 10 8 7 7 9 11 13 14 15 16 16 16 15 15 14 12 10 8 7 5 4 4 3 2 2 2 1 2 3 3
6 6 6 6 6 6 6 7 7 8 9 10 12 13 14 14 15 14 12 11 9 7 7 8 11 14 15 16 17 18 17 17 16 14 13 11 9 8 6 5 5 4 3 2 2 2 2 3 3
7 7 8 8 8 7 7 7 8 9 9 10 12 13 13 14 14 14 13 12 10 8 7 8 10 13 15 16 18 17 17 17 16 15 13 12 10 9 8 7 6 5 4 3 2 2 3 3 4
8 9 9 9 9 7 7 8 9 9 10 11 12 13 13 14 14 14 13 13 10 9 8 7 9 12 15 16 18 18 17 17 17 16 15 13 11 9 9 8 7 6 5 4 3 2 3 3 3
9 9 10 11 9 7 6 8 10 9 10 11 12 12 12 14 14 14 14 13 12 10 9 8 8 11 14 16 17 18 19 19 18 18 16 14 12 10 10 9 8 7 6 5 3 3 3 3 3
10 10 11 12 10 8 7 8 10 10 11 12 12 12 13 14 14 14 14 13 12 10 9 7 7 9 13 16 17 18 19 19 19 18 17 15 13 12 11 10 8 7 7 6 5 4 4 3 3
11 11 12 12 11 10 9 10 11 12 13 13 13 13 13 14 14 14 14 13 11 10 8 6 6 8 11 14 16 17 18 18 18 18 18 16 15 13 12 10 9 8 7 7 6 5 5 4 4
12 12 12 13 12 11 11 11 12 13 14 14 14 13 14 14 13 13 12 12 11 10 9 7 7 8 10 13 15 16 18 18 18 18 18 17 16 14 13 12 10 9 9 8 7 6 6 5 5
13 13 13 14 13 12 11 12 13 14 14 14 13 13 13 13 14 12 12 11 11 10 9 8 7 7 9 12 14 16 18 17 17 18 18 17 16 15 14 13 12 11 10 9 8 7 7 6 6
14 14 14 15 13 12 11 12 13 13 13 13 12 12 12 12 13 13 12 11 11 10 9 8 7 7 8 11 13 16 18 17 16 17 18 17 17 16 15 14 13 12 11 10 9 9 8 8 7
16 16 15 14 13 13 11 10 13 12 13 12 11 11 11 11 11 12 12 11 11 10 9 8 7 6 8 11 12 13 15 17 17 17 17 17 17 17 16 15 14 13 12 12 11 10 10 9 9
18 17 15 14 13 13 12 11 11 13 12 12 11 10 10 10 10 11 11 11 11 10 9 7 6 6 7 9 12 13 14 16 16 17 18 17 17 17 17 16 16 15 14 13 12 12 11 11 11
18 17 15 14 13 13 13 11 11 12 12 11 11 10 10 10 10 10 10 10 10 9 8 6 5 5 6 7 10 11 13 15 15 15 17 17 17 17 18 17 17 16 16 15 14 14 13 13 13
18 16 15 14 14 13 14 12 12 12 11 11 11 10 9 10 10 10 10 10 9 9 8 6 5 5 6 7 9 10 12 13 15 16 16 17 17 18 17 17 18 17 17 16 16 16 15 15 14
18 17 15 13 12 13 15 12 11 11 11 11 10 10 9 10 10 10 10 9 9 9 8 6 5 5 6 7 9 10 12 13 14 16 17 17 18 18 18 18 18 19 19 18 18 17 17 17 17
20 19 17 17 16 14 14 13 12 11 11 11 11 10 10 10 10 10 9 9 9 9 8 7 6 5 6 8 10 11 12 13 14 16 17 18 18 18 19 19 19 20 20 20 19 19 19 19 19
20 19 19 17 16 14 14 13 11 11 11 11 11 10 10 11 11 10 10 10 10 9 9 8 7 6 6 8 10 11 12 13 14 16 16 18 18 18 19 20 20 20 21 21 21 21 20 20 20
20 20 19 18 18 14 13 13 14 12 11 11 11 11 11 12 12 11 11 11 10 9 9 9 8 7 6 7 9 10 12 12 14 15 16 17 18 18 19 20 21 21 21 21 21 22 22 21 22
21 20 20 18 18 16 15 14 16 13 12 11 12 12 12 13 13 12 12 12 10 9 9 9 9 9 8 8 9 10 11 12 13 14 15 16 17 18 19 19 20 20 21 21 21 21 21 22 21
Wind_Direction
72 70 66 58 51 52 55 56 59 58 57 55 55 55 54 51 50 48 77 151 167 172 174 174 171 171 171 172 173 169 159 149 140 133 127 122 117 111 105 102 98 96 95 95 99 104 109 114 120
69 66 62 56 60 52 46 47 52 51 50 47 47 47 47 42 37 32 28 197 195 188 184 183 181 179 177 176 175 172 165 157 150 141 134 129 123 117 111 107 102 100 100 99 102 108 115 117 118
64 63 60 53 60 55 45 43 47 45 43 40 40 40 38 32 27 19 8 268 214 196 189 187 185 185 185 183 182 178 173 168 159 150 142 136 128 123 118 112 107 104 105 103 105 111 118 121 122
57 58 57 54 50 37 36 39 37 40 38 35 33 33 30 25 19 12 1 316 224 205 199 195 192 189 189 189 188 184 179 176 168 159 151 144 137 132 125 118 110 108 112 111 110 114 120 126 127
53 53 55 49 34 25 25 28 31 34 34 32 28 28 25 21 16 8 351 306 236 213 209 203 199 194 193 193 191 189 185 182 177 169 161 153 145 138 131 124 118 117 119 117 116 119 130 135 134
50 51 61 41 19 18 18 20 21 28 29 27 23 21 20 15 14 7 349 307 250 231 220 211 207 201 199 197 195 194 193 189 186 180 172 162 151 143 136 133 131 126 123 120 121 125 132 143 146
45 49 46 30 16 14 13 15 19 22 24 21 17 14 14 13 8 2 352 323 265 245 234 221 214 208 204 201 200 198 197 195 193 188 182 174 162 153 148 144 143 134 130 130 129 130 131 145 155
43 44 35 23 17 11 12 13 14 16 17 12 11 10 9 8 5 1 354 337 288 249 236 228 216 209 206 205 203 202 202 201 199 194 189 182 171 164 161 159 158 149 145 147 140 145 147 157 167
36 41 22 11 9 6 10 8 8 6 6 7 7 6 5 3 2 359 353 342 309 263 245 232 221 214 210 208 206 205 205 204 202 199 195 187 179 173 169 166 165 158 158 164 157 160 164 170 178
25 32 1 3 1 360 3 1 360 356 359 4 3 4 5 3 359 356 353 342 321 283 252 238 224 216 213 210 208 207 208 206 203 201 200 195 188 183 177 173 176 176 174 182 182 187 191 188 184
9 0 351 351 343 342 349 348 348 346 349 354 357 359 1 2 359 356 352 341 325 291 258 247 229 219 215 212 209 209 209 207 204 203 202 199 196 193 188 190 195 192 192 195 197 201 190 185 183
343 339 335 334 330 326 331 335 334 333 335 344 350 352 355 358 358 354 351 346 330 310 264 250 232 220 216 214 210 210 210 209 207 205 205 205 203 201 202 203 204 199 191 191 190 188 192 190 191
327 322 318 320 321 323 328 332 326 321 322 333 342 347 351 353 353 352 350 348 339 316 289 252 228 221 219 217 214 213 212 212 210 210 208 208 208 209 209 207 206 202 192 185 187 193 201 199 190
316 315 317 315 317 323 324 322 317 314 314 323 335 340 343 346 347 348 348 345 340 324 302 270 237 227 224 220 216 214 215 214 213 212 212 212 212 211 210 207 205 201 194 190 186 192 201 207 205
310 311 315 318 319 324 322 317 316 312 311 318 327 333 334 339 344 343 342 342 336 325 309 280 248 230 225 221 215 214 216 216 215 216 216 215 214 211 209 205 205 202 197 194 189 182 190 191 192
305 307 308 313 320 326 318 305 315 312 311 314 319 323 326 331 339 339 338 336 334 328 316 291 250 229 227 224 218 216 215 216 215 216 216 218 217 212 208 207 206 204 200 198 191 180 184 187 186
299 299 298 304 316 318 316 309 314 310 309 310 313 316 320 326 332 336 336 335 334 331 322 301 256 238 231 224 222 219 216 217 215 214 215 217 217 213 209 207 205 206 204 200 194 187 189 190 184
290 292 293 297 306 309 312 309 310 307 306 305 307 310 317 321 325 331 335 336 335 331 323 305 276 250 231 225 222 219 217 215 216 217 217 217 216 214 210 209 208 209 206 203 200 198 201 201 196
286 286 287 291 299 304 307 308 307 304 304 302 303 306 310 319 323 328 332 332 331 327 322 306 283 259 235 224 220 216 214 213 216 217 218 218 217 216 214 214 215 214 211 209 207 206 208 208 207
282 281 282 287 295 302 305 306 304 301 302 299 299 301 304 313 322 323 325 328 329 323 321 314 292 262 234 221 218 214 213 215 217 216 216 217 217 218 216 216 217 214 213 213 212 210 210 212 212
277 276 276 283 294 298 303 307 304 302 300 299 298 300 301 306 316 323 322 324 324 318 312 308 299 268 240 222 217 215 216 217 219 216 216 218 221 219 219 219 220 217 217 216 215 216 215 215 214
272 273 274 280 285 287 297 295 299 299 299 300 299 299 301 305 315 322 322 323 324 318 310 296 282 262 241 225 216 214 216 216 217 217 217 220 220 220 220 221 220 218 217 218 220 220 219 218 218
269 271 272 275 278 281 289 292 291 294 295 297 297 297 300 306 312 316 320 322 322 317 315 302 279 257 236 222 218 219 216 214 215 217 217 217 219 221 223 222 223 221 220 221 223 224 223 223 222
267 269 271 272 274 275 280 286 288 288 292 294 293 292 296 303 307 309 319 326 324 320 317 309 292 260 234 221 217 216 216 217 218 218 217 218 220 223 225 225 225 223 223 224 226 227 227 228 230
263 263 266 268 269 271 276 283 282 286 291 292 290 291 289 295 299 302 311 322 327 327 325 306 287 256 233 229 226 221 220 221 222 220 220 222 222 224 225 226 227 226 227 228 228 230 231 233 237
258 255 252 250 258 266 278 280 283 286 288 290 289 289 284 288 295 298 308 316 324 328 326 313 291 264 248 239 233 229 224 225 224 224 226 226 226 228 228 228 229 229 229 231 233 233 234 238 241
255 253 251 250 251 253 265 276 283 283 286 288 289 285 282 285 290 295 302 313 317 319 319 310 292 274 258 245 237 234 228 231 228 228 228 229 226 230 232 232 232 233 233 234 237 237 238 241 245
252 251 248 247 249 256 267 274 277 281 284 286 287 281 277 283 286 290 294 304 311 312 311 305 293 285 271 253 243 238 237 235 230 232 231 229 228 233 233 231 232 234 236 237 238 239 242 246 247
254 251 250 248 248 250 259 268 272 275 278 280 279 278 277 280 283 282 288 295 303 306 306 300 287 277 273 264 255 246 245 243 237 237 235 234 235 238 236 232 233 236 238 239 241 243 246 250 252
250 249 250 248 253 253 249 260 270 273 274 275 277 277 278 280 281 280 281 288 293 296 298 297 286 273 268 264 259 254 251 247 242 239 241 237 236 235 235 233 235 238 240 242 244 246 248 252 254
Height
5902 5902 5902 5902 5902 5903 5902 5901 5899 5897 5895 5894 5892 5891 5890 5890 5890 5892 5889 5887 5888 5889 5889 5891 5892 5893 5895 5896 5897 5898 5899 5899 5899 5900 5900 5900 5900 5901 5901 5901 5901 5901 5901 5902 5902 5902 5902 5902 5902
5903 5903 5903 5904 5905 5906 5904 5902 5900 5898 5897 5895 5893 5891 5890 5889 5889 5888 5887 5887 5888 5888 5889 5890 5891 5893 5894 5896 5897 5898 5899 5899 5900 5900 5900 5901 5901 5901 5901 5901 5901 5901 5902 5902 5902 5902 5902 5902 5902
5904 5904 5905 5905 5906 5907 5905 5902 5901 5898 5897 5895 5893 5892 5890 5889 5888 5887 5887 5887 5887 5887 5888 5889 5891 5892 5894 5895 5897 5898 5899 5899 5900 5900 5900 5901 5901 5901 5901 5901 5902 5902 5902 5902 5902 5902 5902 5902 5902
5905 5906 5907 5908 5908 5906 5905 5903 5901 5899 5897 5895 5893 5892 5890 5889 5887 5887 5886 5886 5886 5886 5887 5888 5889 5891 5892 5894 5896 5897 5898 5899 5899 5900 5900 5900 5901 5901 5901 5901 5901 5902 5902 5902 5902 5902 5902 5902 5902
5906 5907 5908 5909 5908 5907 5905 5903 5902 5900 5898 5896 5894 5892 5890 5888 5887 5886 5885 5884 5885 5885 5886 5887 5888 5890 5891 5893 5895 5896 5897 5898 5899 5900 5900 5900 5901 5901 5901 5901 5901 5901 5902 5902 5902 5902 5902 5902 5902
5907 5908 5910 5910 5909 5907 5906 5904 5902 5900 5898 5896 5894 5892 5890 5888 5886 5885 5884 5883 5883 5884 5884 5885 5886 5888 5890 5892 5893 5895 5896 5897 5898 5899 5900 5900 5901 5901 5901 5901 5901 5901 5901 5902 5902 5902 5902 5902 5902
5908 5909 5910 5910 5909 5908 5906 5904 5903 5901 5899 5897 5894 5892 5889 5887 5885 5884 5883 5882 5882 5882 5883 5883 5885 5886 5888 5890 5892 5894 5895 5896 5897 5898 5899 5900 5900 5901 5901 5901 5901 5901 5901 5901 5902 5902 5901 5901 5902
5908 5909 5909 5909 5909 5908 5906 5904 5903 5901 5899 5897 5894 5892 5889 5886 5884 5883 5882 5881 5881 5881 5881 5882 5883 5884 5886 5888 5890 5892 5894 5895 5897 5898 5898 5899 5900 5900 5900 5900 5901 5901 5901 5901 5901 5901 5901 5901 5902
5908 5910 5910 5909 5908 5907 5906 5904 5903 5901 5899 5896 5894 5891 5888 5885 5883 5882 5880 5880 5879 5879 5879 5880 5881 5882 5884 5886 5888 5890 5892 5894 5895 5897 5898 5898 5899 5899 5900 5900 5900 5900 5901 5901 5901 5901 5901 5901 5901
5908 5909 5909 5907 5907 5906 5905 5904 5902 5901 5898 5896 5894 5891 5888 5885 5883 5881 5879 5878 5878 5878 5877 5878 5879 5880 5882 5884 5886 5888 5890 5892 5894 5896 5897 5898 5899 5899 5899 5899 5900 5900 5900 5900 5900 5901 5901 5901 5901
5907 5908 5907 5906 5905 5905 5904 5903 5901 5900 5898 5896 5893 5890 5887 5885 5883 5880 5879 5877 5876 5876 5875 5876 5877 5878 5880 5882 5884 5886 5889 5891 5892 5894 5896 5897 5898 5898 5899 5899 5899 5899 5899 5900 5900 5900 5900 5901 5901
5907 5906 5905 5905 5904 5903 5903 5902 5901 5899 5898 5896 5893 5890 5887 5885 5882 5880 5878 5877 5875 5874 5873 5874 5875 5876 5878 5880 5882 5884 5887 5889 5891 5893 5894 5896 5897 5898 5898 5898 5899 5899 5899 5899 5899 5900 5900 5900 5901
5906 5905 5904 5903 5903 5902 5901 5901 5900 5898 5897 5895 5892 5889 5887 5885 5882 5880 5878 5876 5874 5873 5872 5872 5873 5874 5876 5878 5880 5883 5885 5887 5889 5891 5893 5895 5896 5897 5897 5898 5898 5898 5898 5899 5899 5899 5899 5900 5900
5905 5904 5903 5902 5902 5901 5900 5899 5899 5897 5896 5894 5892 5889 5886 5884 5882 5879 5877 5875 5873 5872 5871 5870 5871 5872 5874 5876 5878 5881 5883 5885 5888 5890 5892 5893 5895 5895 5896 5897 5897 5898 5898 5898 5898 5899 5899 5899 5900
5903 5903 5902 5901 5900 5900 5899 5899 5897 5896 5895 5893 5891 5888 5886 5883 5881 5878 5876 5874 5872 5871 5869 5868 5869 5870 5872 5874 5876 5878 5881 5883 5886 5888 5890 5892 5893 5894 5895 5896 5896 5897 5897 5898 5898 5898 5899 5899 5899
5901 5901 5901 5900 5899 5899 5900 5899 5896 5895 5893 5892 5890 5887 5885 5882 5880 5877 5875 5873 5871 5869 5867 5866 5867 5868 5869 5871 5874 5876 5878 5881 5884 5886 5888 5890 5891 5893 5894 5895 5896 5896 5897 5897 5897 5898 5899 5899 5899
5900 5900 5899 5899 5898 5897 5897 5896 5895 5893 5892 5891 5889 5886 5884 5881 5879 5876 5874 5871 5869 5867 5866 5865 5865 5866 5867 5869 5871 5874 5876 5879 5881 5883 5886 5888 5890 5891 5893 5894 5895 5895 5896 5896 5897 5898 5898 5899 5899
5898 5898 5897 5896 5895 5895 5895 5894 5893 5891 5890 5889 5887 5885 5882 5880 5877 5875 5873 5870 5868 5866 5865 5863 5863 5864 5865 5866 5869 5871 5874 5876 5879 5881 5883 5886 5887 5889 5891 5892 5893 5894 5895 5896 5897 5897 5898 5898 5899
5895 5895 5894 5893 5893 5893 5893 5892 5891 5889 5888 5886 5885 5883 5881 5878 5876 5873 5871 5869 5867 5865 5864 5862 5861 5861 5862 5864 5866 5869 5871 5874 5877 5879 5881 5883 5885 5887 5889 5891 5892 5893 5894 5895 5896 5897 5897 5898 5898
5891 5892 5891 5891 5890 5891 5890 5889 5888 5887 5885 5884 5882 5881 5879 5877 5874 5872 5870 5868 5866 5864 5862 5860 5860 5859 5860 5862 5864 5866 5869 5871 5874 5876 5879 5881 5883 5885 5887 5889 5890 5892 5893 5894 5895 5896 5896 5897 5898
5888 5888 5888 5888 5888 5888 5888 5888 5886 5884 5882 5881 5880 5878 5877 5875 5873 5870 5868 5866 5864 5862 5860 5859 5858 5857 5857 5859 5861 5864 5866 5869 5872 5874 5876 5879 5881 5883 5885 5887 5888 5890 5891 5892 5893 5894 5895 5896 5897
5884 5884 5884 5885 5885 5886 5886 5886 5884 5881 5880 5879 5877 5876 5874 5872 5871 5868 5866 5864 5862 5860 5858 5857 5856 5855 5856 5858 5860 5862 5864 5867 5869 5871 5874 5876 5878 5880 5883 5884 5886 5888 5889 5890 5892 5893 5894 5895 5896
5880 5880 5881 5882 5882 5883 5882 5883 5883 5879 5878 5876 5875 5873 5872 5870 5869 5867 5865 5862 5860 5858 5856 5854 5854 5854 5855 5856 5858 5860 5862 5864 5867 5869 5871 5873 5875 5878 5880 5882 5884 5885 5887 5888 5890 5891 5892 5893 5894
5876 5877 5877 5878 5879 5880 5880 5880 5880 5877 5875 5874 5872 5871 5869 5868 5866 5865 5863 5861 5859 5856 5855 5853 5852 5852 5853 5854 5856 5858 5860 5862 5864 5867 5869 5871 5873 5875 5877 5879 5881 5883 5884 5886 5887 5889 5890 5891 5892
5872 5874 5875 5876 5877 5878 5876 5876 5876 5873 5872 5871 5870 5868 5867 5866 5864 5863 5861 5859 5857 5855 5853 5852 5851 5851 5852 5853 5854 5856 5857 5859 5862 5864 5866 5868 5870 5872 5874 5876 5878 5880 5881 5883 5884 5886 5887 5888 5889
5867 5870 5872 5875 5876 5875 5872 5872 5872 5870 5869 5868 5866 5865 5864 5863 5862 5861 5859 5858 5856 5854 5852 5851 5851 5851 5851 5852 5853 5854 5855 5857 5858 5860 5863 5865 5867 5869 5871 5872 5874 5876 5878 5880 5881 5882 5884 5885 5886
5861 5864 5867 5869 5869 5871 5871 5869 5868 5867 5866 5865 5864 5862 5862 5861 5860 5859 5858 5856 5855 5853 5852 5850 5850 5850 5850 5850 5851 5852 5853 5854 5856 5858 5859 5861 5863 5865 5867 5869 5871 5873 5874 5876 5877 5879 5880 5881 5882
5857 5859 5861 5863 5865 5867 5868 5866 5866 5864 5863 5862 5861 5860 5859 5859 5858 5857 5856 5855 5854 5852 5851 5850 5849 5849 5848 5848 5849 5850 5851 5852 5853 5855 5856 5858 5860 5861 5863 5865 5867 5868 5870 5872 5873 5874 5876 5877 5877
5852 5854 5856 5859 5861 5864 5865 5867 5862 5861 5860 5859 5858 5858 5857 5856 5855 5855 5854 5853 5852 5851 5849 5848 5847 5847 5847 5847 5848 5848 5849 5850 5851 5852 5853 5854 5856 5858 5859 5861 5863 5864 5866 5867 5869 5870 5871 5872 5873
5847 5849 5852 5855 5856 5857 5860 5864 5857 5857 5856 5856 5855 5855 5854 5853 5853 5852 5851 5850 5850 5849 5847 5846 5846 5845 5845 5845 5846 5846 5846 5847 5848 5849 5849 5850 5852 5853 5855 5857 5859 5860 5862 5863 5864 5865 5866 5867 5868